This is the latest recevied weather packets stored in our database for station/object DC1MPP-9. If no packets are shown the sender has not sent any weather packets the latest 10 day(s).
| Time | Temp. | Humidity | Pressure | Rain* | Wind** | Luminosity | Snow |
|---|---|---|---|---|---|---|---|
| 1787831883 | 30.56° C | 58% | 957 hPa | - | - | - | - |
| 1787831641 | 30.56° C | 58% | 957 hPa | - | - | - | - |
| 1787831400 | 31.11° C | 60% | 957 hPa | - | - | - | - |
| 1787831159 | 30.56° C | 60% | 957 hPa | - | - | - | - |
| 1787830918 | 30.56° C | 62% | 958 hPa | - | - | - | - |
| 1787830677 | 30° C | 61% | 958 hPa | - | - | - | - |
| 1787830436 | 30° C | 62% | 958 hPa | - | - | - | - |
| 1787829954 | 30.56° C | 67% | 958 hPa | - | - | - | - |
| 1787829713 | 30° C | 67% | 958 hPa | - | - | - | - |
| 1787829231 | 30° C | 65% | 958 hPa | - | - | - | - |
| 1787828990 | 30.56° C | 63% | 958 hPa | - | - | - | - |
| 1787828749 | 30° C | 73% | 958 hPa | - | - | - | - |
| 1787828507 | 30° C | 66% | 958 hPa | - | - | - | - |
| 1787828267 | 29.44° C | 67% | 958 hPa | - | - | - | - |
| 1787828025 | 29.44° C | 68% | 958 hPa | - | - | - | - |
| 1787827784 | 28.89° C | 70% | 958 hPa | - | - | - | - |
| 1787827543 | 29.44° C | 67% | 958 hPa | - | - | - | - |
| 1787827302 | 29.44° C | 71% | 958 hPa | - | - | - | - |
| 1787827061 | 28.89° C | 72% | 958 hPa | - | - | - | - |
| 1787826820 | 28.33° C | 71% | 958 hPa | - | - | - | - |
| 1787826579 | 28.89° C | 72% | 958 hPa | - | - | - | - |
| 1787826338 | 28.33° C | 70% | 958 hPa | - | - | - | - |
| 1787825856 | 28.33° C | 74% | 958 hPa | - | - | - | - |
| 1787825374 | 28.33° C | 73% | 958 hPa | - | - | - | - |
| 1787825133 | 28.33° C | 73% | 958 hPa | - | - | - | - |
* Rain since midnight (hover to see other rain measurements)
** Current wind speed in m/s (hover to see current wind gust speed)